| time (UTC) | temp F | wind direction | speed knots | gust knots | rain 1hr in | rain 24hr in | rain mn in | humidity % | barometer mb |
| 20260506125224 | 75 | 55 | 1.7 | 2.6 | 0.00 | 0.00 | 0.00 | 96 | 1010.0 |
| 20260506124723 | 74 | 110 | 0.9 | 2.6 | 0.00 | 0.00 | 0.00 | 96 | 1010.0 |
| 20260506124223 | 74 | 98 | 1.7 | 2.6 | 0.00 | 0.00 | 0.00 | 96 | 1010.0 |
| 20260506123724 | 74 | 156 | 2.6 | 3.5 | 0.00 | 0.00 | 0.00 | 96 | 1010.0 |
| 20260506123224 | 74 | 94 | 0.9 | 2.6 | 0.00 | 0.00 | 0.00 | 96 | 1010.0 |
| 20260506122723 | 74 | 80 | 1.7 | 1.7 | 0.00 | 0.00 | 0.00 | 96 | 1010.0 |
| 20260506122224 | 74 | 138 | 2.6 | 3.5 | 0.00 | 0.00 | 0.00 | 96 | 1010.0 |
| 20260506121723 | 74 | 89 | 0.0 | 2.6 | 0.00 | 0.00 | 0.00 | 96 | 1010.0 |
| 20260506121223 | 74 | 124 | 2.6 | 2.6 | 0.00 | 0.00 | 0.00 | 96 | 1010.0 |
| 20260506120723 | 74 | 116 | 2.6 | 2.6 | 0.00 | 0.00 | 0.00 | 96 | 1010.0 |
| 20260506120224 | 74 | 172 | 5.2 | 5.2 | 0.00 | 0.00 | 0.00 | 96 | 1010.0 |
| 20260506115724 | 74 | 135 | 2.6 | 3.5 | 0.00 | 0.00 | 0.00 | 96 | 1010.0 |
| 20260506115223 | 74 | 130 | 3.5 | 3.5 | 0.00 | 0.00 | 0.00 | 96 | 1010.0 |
| 20260506114723 | 74 | 146 | 3.5 | 5.2 | 0.00 | 0.00 | 0.00 | 95 | 1010.0 |
| 20260506114223 | 74 | 109 | 1.7 | 3.5 | 0.00 | 0.00 | 0.00 | 96 | 1010.0 |
| 20260506113724 | 74 | 150 | 2.6 | 5.2 | 0.00 | 0.00 | 0.00 | 95 | 1009.0 |
| 20260506113224 | 75 | 137 | 2.6 | 5.2 | 0.00 | 0.00 | 0.00 | 95 | 1010.0 |
| 20260506112725 | 75 | 139 | 4.3 | 4.3 | 0.00 | 0.00 | 0.00 | 95 | 1009.0 |
| 20260506112226 | 75 | 121 | 2.6 | 5.2 | 0.00 | 0.00 | 0.00 | 95 | 1010.0 |
| 20260506111726 | 75 | 115 | 1.7 | 2.6 | 0.00 | 0.00 | 0.00 | 95 | 1009.0 |
| 20260506111226 | 75 | 112 | 0.0 | 2.6 | 0.00 | 0.00 | 0.00 | 95 | 1010.0 |
| 20260506110724 | 75 | 162 | 2.6 | 3.5 | 0.00 | 0.00 | 0.00 | 95 | 1010.0 |
| 20260506110228 | 75 | 162 | 2.6 | 4.3 | 0.00 | 0.00 | 0.00 | 95 | 1009.0 |
| 20260506105725 | 75 | 121 | 1.7 | 2.6 | 0.00 | 0.00 | 0.00 | 95 | 1009.0 |
| 20260506105223 | 75 | 158 | 0.9 | 2.6 | 0.00 | 0.00 | 0.00 | 95 | 1009.0 |
| 20260506104723 | 75 | 129 | 2.6 | 2.6 | 0.00 | 0.00 | 0.00 | 95 | 1010.0 |
| 20260506104223 | 75 | 129 | 1.7 | 2.6 | 0.00 | 0.00 | 0.00 | 95 | 1010.0 |
| 20260506103725 | 75 | 136 | 1.7 | 1.7 | 0.00 | 0.00 | 0.00 | 95 | 1010.0 |
| 20260506103225 | 75 | 129 | 1.7 | 2.6 | 0.00 | 0.00 | 0.00 | 95 | 1009.0 |
| 20260506102725 | 75 | 151 | 3.5 | 3.5 | 0.00 | 0.00 | 0.00 | 95 | 1009.0 |
| 20260506102223 | 75 | 157 | 3.5 | 3.5 | 0.00 | 0.00 | 0.00 | 95 | 1009.0 |
| 20260506101723 | 75 | 143 | 1.7 | 2.6 | 0.00 | 0.00 | 0.00 | 95 | 1009.0 |
| 20260506101225 | 75 | 175 | 2.6 | 4.3 | 0.00 | 0.00 | 0.00 | 95 | 1009.0 |
| 20260506100725 | 75 | 139 | 4.3 | 4.3 | 0.00 | 0.00 | 0.00 | 95 | 1009.0 |
| 20260506100225 | 75 | 138 | 3.5 | 3.5 | 0.00 | 0.00 | 0.00 | 95 | 1009.0 |
| 20260506095724 | 75 | 159 | 4.3 | 5.2 | 0.00 | 0.00 | 0.00 | 95 | 1009.0 |
| 20260506095224 | 75 | 123 | 1.7 | 2.6 | 0.00 | 0.00 | 0.00 | 95 | 1009.0 |
| 20260506094723 | 75 | 160 | 1.7 | 5.2 | 0.00 | 0.00 | 0.00 | 95 | 1009.0 |
| 20260506094223 | 75 | 175 | 1.7 | 5.2 | 0.00 | 0.00 | 0.00 | 95 | 1009.0 |
| 20260506093723 | 75 | 154 | 2.6 | 4.3 | 0.00 | 0.00 | 0.00 | 94 | 1009.0 |
| 20260506093223 | 75 | 166 | 4.3 | 7.0 | 0.00 | 0.00 | 0.00 | 94 | 1008.0 |
| 20260506092723 | 75 | 148 | 6.1 | 9.6 | 0.00 | 0.00 | 0.00 | 94 | 1009.0 |
| 20260506092224 | 75 | 148 | 3.5 | 5.2 | 0.00 | 0.00 | 0.00 | 94 | 1009.0 |
| 20260506091723 | 75 | 126 | 5.2 | 7.8 | 0.00 | 0.00 | 0.00 | 94 | 1009.0 |
| 20260506091226 | 75 | 176 | 4.3 | 5.2 | 0.00 | 0.00 | 0.00 | 94 | 1009.0 |
| 20260506090725 | 75 | 119 | 2.6 | 5.2 | 0.00 | 0.00 | 0.00 | 93 | 1009.0 |
| 20260506090224 | 75 | 156 | 3.5 | 4.3 | 0.00 | 0.00 | 0.00 | 93 | 1009.0 |
| 20260506085723 | 75 | 134 | 3.5 | 5.2 | 0.00 | 0.00 | 0.00 | 93 | 1009.0 |
| 20260506085224 | 75 | 138 | 7.8 | 7.8 | 0.00 | 0.00 | 0.00 | 93 | 1009.0 |
| 20260506084723 | 75 | 160 | 2.6 | 5.2 | 0.00 | 0.00 | 0.00 | 93 | 1009.0 |
| 20260506084223 | 75 | 127 | 3.5 | 6.1 | 0.00 | 0.00 | 0.00 | 93 | 1009.0 |
| 20260506083724 | 75 | 120 | 2.6 | 5.2 | 0.00 | 0.00 | 0.00 | 93 | 1009.0 |
| 20260506083223 | 75 | 109 | 2.6 | 5.2 | 0.00 | 0.00 | 0.00 | 93 | 1009.0 |
| 20260506082723 | 75 | 167 | 2.6 | 7.0 | 0.00 | 0.00 | 0.00 | 92 | 1009.0 |
| 20260506082223 | 75 | 146 | 4.3 | 5.2 | 0.00 | 0.00 | 0.00 | 92 | 1009.0 |
| 20260506081723 | 76 | 150 | 6.1 | 6.1 | 0.00 | 0.00 | 0.00 | 92 | 1009.0 |
| 20260506081223 | 76 | 153 | 2.6 | 5.2 | 0.00 | 0.00 | 0.00 | 92 | 1009.0 |
| 20260506080724 | 76 | 152 | 4.3 | 7.0 | 0.00 | 0.00 | 0.00 | 92 | 1009.0 |
| 20260506080223 | 76 | 131 | 7.0 | 8.7 | 0.00 | 0.00 | 0.00 | 92 | 1009.0 |
| 20260506073223 | 76 | 154 | 2.6 | 6.1 | 0.00 | 0.00 | 0.00 | 92 | 1009.0 |
| 20260506072723 | 76 | 149 | 3.5 | 7.8 | 0.00 | 0.00 | 0.00 | 91 | 1009.0 |
| 20260506072224 | 76 | 130 | 7.8 | 8.7 | 0.00 | 0.00 | 0.00 | 91 | 1009.0 |
| 20260506071727 | 76 | 133 | 5.2 | 6.1 | 0.00 | 0.00 | 0.00 | 92 | 1009.0 |
| 20260506071224 | 76 | 161 | 2.6 | 5.2 | 0.00 | 0.00 | 0.00 | 92 | 1009.0 |
| 20260506070723 | 76 | 145 | 5.2 | 7.0 | 0.00 | 0.00 | 0.00 | 92 | 1009.0 |
| 20260506070223 | 76 | 103 | 1.7 | 6.1 | 0.00 | 0.00 | 0.00 | 92 | 1009.0 |
| 20260506062223 | 76 | 141 | 3.5 | 9.6 | 0.00 | 0.00 | 0.00 | 92 | 1010.0 |
| 20260506061723 | 76 | 147 | 2.6 | 5.2 | 0.00 | 0.00 | 0.00 | 92 | 1009.0 |
| 20260506061223 | 76 | 120 | 5.2 | 9.6 | 0.00 | 0.00 | 0.00 | 92 | 1009.0 |
| 20260506060723 | 76 | 114 | 2.6 | 7.0 | 0.00 | 0.00 | 0.00 | 91 | 1009.0 |
| 20260506060223 | 76 | 130 | 3.5 | 9.6 | 0.00 | 0.00 | 0.00 | 91 | 1009.0 |
| 20260506051223 | 76 | 116 | 1.7 | 4.3 | 0.00 | 0.00 | 0.00 | 91 | 1009.0 |
| 20260506050724 | 76 | 106 | 2.6 | 5.2 | 0.00 | 0.00 | 0.00 | 91 | 1009.0 |
| 20260506050224 | 76 | 139 | 6.1 | 7.0 | 0.00 | 0.00 | 0.00 | 91 | 1009.0 |
| 20260506044723 | 77 | 102 | 2.6 | 5.2 | 0.00 | 0.00 | 0.00 | 90 | 1009.0 |
| 20260506044224 | 77 | 114 | 3.5 | 7.0 | 0.00 | 0.00 | 0.00 | 90 | 1010.0 |
| 20260506043724 | 77 | 120 | 2.6 | 6.1 | 0.00 | 0.00 | 0.00 | 90 | 1010.0 |
| 20260506043224 | 77 | 106 | 3.5 | 6.1 | 0.00 | 0.00 | 0.00 | 90 | 1010.0 |
| 20260506042723 | 77 | 111 | 2.6 | 5.2 | 0.00 | 0.00 | 0.00 | 90 | 1010.0 |
| 20260506042223 | 77 | 121 | 2.6 | 8.7 | 0.00 | 0.00 | 0.00 | 90 | 1009.0 |
| 20260506041724 | 77 | 116 | 5.2 | 7.8 | 0.00 | 0.00 | 0.00 | 90 | 1009.0 |
| 20260506041224 | 77 | 166 | 3.5 | 7.8 | 0.00 | 0.00 | 0.00 | 90 | 1009.0 |
| 20260506040723 | 77 | 142 | 3.5 | 6.1 | 0.00 | 0.00 | 0.00 | 90 | 1009.0 |
| 20260506040224 | 77 | 113 | 2.6 | 6.1 | 0.00 | 0.00 | 0.00 | 90 | 1009.0 |
| 20260506035724 | 77 | 144 | 6.1 | 7.8 | 0.00 | 0.00 | 0.00 | 90 | 1009.0 |
| 20260506035223 | 77 | 139 | 4.3 | 7.8 | 0.00 | 0.00 | 0.00 | 90 | 1009.0 |
| 20260506034723 | 77 | 129 | 2.6 | 4.3 | 0.00 | 0.00 | 0.00 | 90 | 1009.0 |
| 20260506034223 | 77 | 136 | 5.2 | 5.2 | 0.00 | 0.00 | 0.00 | 90 | 1009.0 |
| 20260506033724 | 77 | 82 | 2.6 | 6.1 | 0.00 | 0.00 | 0.00 | 90 | 1009.0 |
| 20260506033223 | 77 | 116 | 1.7 | 4.3 | 0.00 | 0.00 | 0.00 | 90 | 1009.0 |
| 20260506032723 | 77 | 137 | 4.3 | 7.0 | 0.00 | 0.00 | 0.00 | 89 | 1009.0 |
| 20260506032223 | 77 | 114 | 3.5 | 7.0 | 0.00 | 0.00 | 0.00 | 89 | 1009.0 |
| 20260506031723 | 77 | 104 | 2.6 | 5.2 | 0.00 | 0.00 | 0.00 | 89 | 1009.0 |
| 20260506031223 | 77 | 95 | 2.6 | 6.1 | 0.00 | 0.00 | 0.00 | 89 | 1009.0 |
| 20260506030723 | 78 | 142 | 4.3 | 6.1 | 0.00 | 0.00 | 0.00 | 88 | 1008.0 |
| 20260506030223 | 78 | 133 | 7.0 | 7.8 | 0.00 | 0.00 | 0.00 | 88 | 1008.0 |
| 20260506025724 | 78 | 124 | 2.6 | 5.2 | 0.00 | 0.00 | 0.00 | 88 | 1008.0 |
| 20260506025223 | 78 | 139 | 8.7 | 9.6 | 0.00 | 0.00 | 0.00 | 88 | 1008.0 |
| 20260506024234 | 78 | 160 | 7.0 | 10.4 | 0.00 | 0.00 | 0.00 | 87 | 1008.0 |
| 20260506023723 | 79 | 108 | 3.5 | 10.4 | 0.00 | 0.00 | 0.00 | 86 | 1008.0 |
| 20260506023224 | 79 | 106 | 2.6 | 8.7 | 0.00 | 0.00 | 0.00 | 86 | 1008.0 |
| 20260506022723 | 79 | 125 | 7.8 | 10.4 | 0.00 | 0.00 | 0.00 | 85 | 1008.0 |
| 20260506022225 | 80 | 123 | 7.0 | 10.4 | 0.00 | 0.00 | 0.00 | 85 | 1008.0 |
| 20260506021723 | 80 | 132 | 7.8 | 8.7 | 0.00 | 0.00 | 0.00 | 84 | 1008.0 |
| 20260506021226 | 80 | 117 | 6.1 | 6.1 | 0.00 | 0.00 | 0.00 | 84 | 1008.0 |
| 20260506020723 | 80 | 153 | 3.5 | 8.7 | 0.00 | 0.00 | 0.00 | 84 | 1008.0 |
| 20260506020223 | 81 | 128 | 2.6 | 3.5 | 0.00 | 0.00 | 0.00 | 83 | 1008.0 |
| 20260506015723 | 81 | 115 | 3.5 | 6.1 | 0.00 | 0.00 | 0.00 | 83 | 1008.0 |
| 20260506015224 | 81 | 123 | 4.3 | 10.4 | 0.00 | 0.00 | 0.00 | 82 | 1008.0 |
| 20260506014723 | 81 | 143 | 3.5 | 6.1 | 0.00 | 0.00 | 0.00 | 82 | 1007.0 |
| 20260506014223 | 82 | 134 | 4.3 | 5.2 | 0.00 | 0.00 | 0.00 | 81 | 1007.0 |
| 20260506013723 | 82 | 100 | 2.6 | 8.7 | 0.00 | 0.00 | 0.00 | 80 | 1007.0 |
| 20260506013224 | 82 | 123 | 1.7 | 7.0 | 0.00 | 0.00 | 0.00 | 79 | 1007.0 |
| 20260506012723 | 82 | 120 | 2.6 | 7.8 | 0.00 | 0.00 | 0.00 | 78 | 1007.0 |
| 20260506012224 | 83 | 113 | 2.6 | 4.3 | 0.00 | 0.00 | 0.00 | 78 | 1007.0 |
| 20260506011724 | 83 | 101 | 2.6 | 2.6 | 0.00 | 0.00 | 0.00 | 77 | 1007.0 |
| 20260506011225 | 83 | 134 | 4.3 | 5.2 | 0.00 | 0.00 | 0.00 | 76 | 1007.0 |
| 20260506010723 | 83 | 112 | 2.6 | 4.3 | 0.00 | 0.00 | 0.00 | 76 | 1007.0 |
| 20260506010223 | 84 | 119 | 1.7 | 2.6 | 0.00 | 0.00 | 0.00 | 76 | 1007.0 |
| 20260506005724 | 84 | 141 | 0.0 | 2.6 | 0.00 | 0.00 | 0.00 | 76 | 1007.0 |
| 20260506005224 | 84 | 141 | 0.9 | 2.6 | 0.00 | 0.00 | 0.00 | 75 | 1007.0 |
| 20260506004724 | 84 | 111 | 1.7 | 3.5 | 0.00 | 0.00 | 0.00 | 75 | 1007.0 |
| 20260506004224 | 84 | 130 | 3.5 | 6.1 | 0.00 | 0.00 | 0.00 | 74 | 1007.0 |
| 20260506003723 | 85 | 115 | 0.9 | 3.5 | 0.00 | 0.00 | 0.00 | 74 | 1007.0 |
| 20260506003223 | 84 | 106 | 0.9 | 5.2 | 0.00 | 0.00 | 0.00 | 74 | 1007.0 |
| 20260506002724 | 85 | 78 | 1.7 | 4.3 | 0.00 | 0.00 | 0.00 | 73 | 1007.0 |
| 20260506002223 | 85 | 163 | 2.6 | 4.3 | 0.00 | 0.00 | 0.00 | 73 | 1007.0 |
| 20260506001723 | 85 | 198 | 1.7 | 3.5 | 0.00 | 0.00 | 0.00 | 72 | 1007.0 |
| 20260506001223 | 85 | 127 | 2.6 | 4.3 | 0.00 | 0.00 | 0.00 | 72 | 1007.0 |
| 20260506000724 | 85 | 152 | 2.6 | 5.2 | 0.00 | 0.00 | 0.00 | 72 | 1007.0 |
| 20260506000223 | 86 | 127 | 0.9 | 5.2 | 0.00 | 0.00 | 0.00 | 71 | 1007.0 |
| 20260505235724 | 86 | 164 | 2.6 | 3.5 | 0.00 | 0.00 | 0.00 | 71 | 1007.0 |
| 20260505235223 | 86 | 104 | 2.6 | 4.3 | 0.00 | 0.00 | 0.00 | 71 | 1006.0 |
| 20260505234723 | 86 | 166 | 2.6 | 8.7 | 0.00 | 0.00 | 0.00 | 72 | 1007.0 |
| 20260505234223 | 86 | 106 | 2.6 | 5.2 | 0.00 | 0.00 | 0.00 | 71 | 1006.0 |
| 20260505233723 | 85 | 155 | 1.7 | 3.5 | 0.00 | 0.00 | 0.00 | 72 | 1006.0 |
| 20260505233223 | 85 | 142 | 4.3 | 7.8 | 0.00 | 0.00 | 0.00 | 72 | 1006.0 |
| 20260505232724 | 85 | 101 | 2.6 | 6.1 | 0.00 | 0.00 | 0.00 | 72 | 1007.0 |
| 20260505232223 | 86 | 147 | 5.2 | 9.6 | 0.00 | 0.00 | 0.00 | 72 | 1007.0 |
| 20260505231723 | 86 | 92 | 1.7 | 8.7 | 0.00 | 0.00 | 0.00 | 70 | 1006.0 |
| 20260505231223 | 86 | 151 | 5.2 | 7.8 | 0.00 | 0.00 | 0.00 | 69 | 1007.0 |
| 20260505230724 | 86 | 165 | 1.7 | 4.3 | 0.00 | 0.00 | 0.00 | 70 | 1007.0 |
| 20260505230223 | 85 | 174 | 0.9 | 4.3 | 0.00 | 0.00 | 0.00 | 71 | 1007.0 |
| 20260505225725 | 85 | 146 | 2.6 | 7.0 | 0.00 | 0.00 | 0.00 | 71 | 1007.0 |
| 20260505225223 | 86 | 130 | 2.6 | 7.0 | 0.00 | 0.00 | 0.00 | 71 | 1007.0 |
| 20260505224723 | 86 | 127 | 4.3 | 7.0 | 0.00 | 0.00 | 0.00 | 71 | 1007.0 |
| 20260505224223 | 86 | 230 | 3.5 | 3.5 | 0.00 | 0.00 | 0.00 | 70 | 1007.0 |
| 20260505223723 | 85 | 130 | 2.6 | 7.8 | 0.00 | 0.00 | 0.00 | 70 | 1007.0 |
| 20260505223223 | 85 | 166 | 3.5 | 6.1 | 0.00 | 0.00 | 0.00 | 70 | 1007.0 |
| 20260505222723 | 86 | 167 | 6.1 | 6.1 | 0.00 | 0.00 | 0.00 | 70 | 1007.0 |
| 20260505222223 | 85 | 173 | 4.3 | 7.8 | 0.00 | 0.00 | 0.00 | 70 | 1007.0 |
| 20260505221724 | 86 | 158 | 5.2 | 7.8 | 0.00 | 0.00 | 0.00 | 69 | 1007.0 |
| 20260505221223 | 85 | 117 | 1.7 | 6.1 | 0.00 | 0.00 | 0.00 | 71 | 1007.0 |
| 20260505220724 | 84 | 135 | 5.2 | 7.0 | 0.00 | 0.00 | 0.00 | 71 | 1007.0 |
| 20260505220225 | 85 | 183 | 4.3 | 5.2 | 0.00 | 0.00 | 0.00 | 71 | 1007.0 |
| 20260505215724 | 84 | 202 | 0.0 | 3.5 | 0.00 | 0.00 | 0.00 | 71 | 1007.0 |
| 20260505215223 | 85 | 197 | 5.2 | 7.8 | 0.00 | 0.00 | 0.00 | 70 | 1007.0 |
| 20260505214723 | 85 | 183 | 5.2 | 6.1 | 0.00 | 0.00 | 0.00 | 71 | 1007.0 |
| 20260505214224 | 85 | 130 | 4.3 | 8.7 | 0.00 | 0.00 | 0.00 | 71 | 1007.0 |
| 20260505213723 | 84 | 205 | 4.3 | 8.7 | 0.00 | 0.00 | 0.00 | 71 | 1008.0 |
| 20260505213223 | 84 | 150 | 2.6 | 6.1 | 0.00 | 0.00 | 0.00 | 71 | 1007.0 |
| 20260505212723 | 84 | 161 | 3.5 | 5.2 | 0.00 | 0.00 | 0.00 | 71 | 1007.0 |
| 20260505212224 | 84 | 193 | 2.6 | 8.7 | 0.00 | 0.00 | 0.00 | 72 | 1008.0 |
| 20260505211723 | 84 | 151 | 0.9 | 5.2 | 0.00 | 0.00 | 0.00 | 71 | 1008.0 |
| 20260505211223 | 84 | 133 | 6.1 | 7.8 | 0.00 | 0.00 | 0.00 | 71 | 1008.0 |
| 20260505210725 | 85 | 129 | 3.5 | 5.2 | 0.00 | 0.00 | 0.00 | 71 | 1008.0 |
| 20260505210228 | 84 | 214 | 5.2 | 6.1 | 0.00 | 0.00 | 0.00 | 70 | 1008.0 |
| 20260505205723 | 83 | 129 | 3.5 | 6.1 | 0.00 | 0.00 | 0.00 | 72 | 1008.0 |
| 20260505205223 | 83 | 144 | 3.5 | 7.8 | 0.00 | 0.00 | 0.00 | 73 | 1008.0 |
| 20260505204723 | 83 | 155 | 7.0 | 7.0 | 0.00 | 0.00 | 0.00 | 72 | 1008.0 |
| 20260505204224 | 84 | 130 | 6.1 | 8.7 | 0.00 | 0.00 | 0.00 | 73 | 1008.0 |
| 20260505203723 | 84 | 183 | 5.2 | 6.1 | 0.00 | 0.00 | 0.00 | 72 | 1008.0 |
| 20260505203223 | 82 | 272 | 0.9 | 7.8 | 0.00 | 0.00 | 0.00 | 74 | 1008.0 |
| 20260505202723 | 82 | 150 | 5.2 | 8.7 | 0.00 | 0.00 | 0.00 | 74 | 1009.0 |
| 20260505202223 | 82 | 162 | 4.3 | 5.2 | 0.00 | 0.00 | 0.00 | 75 | 1009.0 |
| 20260505201723 | 82 | 180 | 2.6 | 7.0 | 0.00 | 0.00 | 0.00 | 75 | 1009.0 |
| 20260505201224 | 83 | 158 | 4.3 | 6.1 | 0.00 | 0.00 | 0.00 | 74 | 1008.0 |
| 20260505200731 | 83 | 216 | 4.3 | 6.1 | 0.00 | 0.00 | 0.00 | 73 | 1009.0 |
| 20260505200225 | 82 | 157 | 6.1 | 7.8 | 0.00 | 0.00 | 0.00 | 73 | 1009.0 |
| 20260505195725 | 83 | 195 | 6.1 | 7.0 | 0.00 | 0.00 | 0.00 | 73 | 1009.0 |
| 20260505195225 | 82 | 183 | 5.2 | 5.2 | 0.00 | 0.00 | 0.00 | 75 | 1009.0 |
| 20260505194723 | 82 | 196 | 3.5 | 7.0 | 0.00 | 0.00 | 0.00 | 75 | 1009.0 |
| 20260505194223 | 82 | 173 | 4.3 | 7.8 | 0.00 | 0.00 | 0.00 | 76 | 1009.0 |
| 20260505193723 | 81 | 180 | 3.5 | 5.2 | 0.00 | 0.00 | 0.00 | 77 | 1009.0 |
| 20260505193223 | 81 | 156 | 6.1 | 6.1 | 0.00 | 0.00 | 0.00 | 78 | 1009.0 |
| 20260505192723 | 81 | 138 | 5.2 | 7.8 | 0.00 | 0.00 | 0.00 | 78 | 1009.0 |
| 20260505192224 | 80 | 174 | 3.5 | 5.2 | 0.00 | 0.00 | 0.00 | 79 | 1009.0 |
| 20260505191724 | 80 | 146 | 6.1 | 9.6 | 0.00 | 0.00 | 0.00 | 79 | 1009.0 |
| 20260505191223 | 80 | 139 | 4.3 | 7.0 | 0.00 | 0.00 | 0.00 | 78 | 1010.0 |
| 20260505190724 | 80 | 126 | 6.1 | 6.1 | 0.00 | 0.00 | 0.00 | 79 | 1010.0 |
| 20260505190223 | 80 | 177 | 4.3 | 8.7 | 0.00 | 0.00 | 0.00 | 78 | 1010.0 |
| 20260505185723 | 79 | 210 | 3.5 | 8.7 | 0.00 | 0.00 | 0.00 | 79 | 1010.0 |
| 20260505185224 | 80 | 140 | 5.2 | 6.1 | 0.00 | 0.00 | 0.00 | 79 | 1010.0 |
| 20260505184723 | 79 | 155 | 4.3 | 7.0 | 0.00 | 0.00 | 0.00 | 80 | 1010.0 |
| 20260505184224 | 80 | 194 | 2.6 | 7.0 | 0.00 | 0.00 | 0.00 | 80 | 1010.0 |
| 20260505183723 | 78 | 167 | 1.7 | 6.1 | 0.00 | 0.00 | 0.00 | 81 | 1010.0 |
| 20260505183225 | 78 | 154 | 5.2 | 7.8 | 0.00 | 0.00 | 0.00 | 81 | 1010.0 |
| 20260505182725 | 78 | 143 | 4.3 | 4.3 | 0.00 | 0.00 | 0.00 | 81 | 1010.0 |
| 20260505182224 | 78 | 189 | 2.6 | 4.3 | 0.00 | 0.00 | 0.00 | 82 | 1010.0 |
| 20260505181726 | 78 | 201 | 1.7 | 6.1 | 0.00 | 0.00 | 0.00 | 82 | 1010.0 |
| 20260505181223 | 78 | 124 | 6.1 | 7.0 | 0.00 | 0.00 | 0.00 | 82 | 1010.0 |
| 20260505180723 | 78 | 180 | 3.5 | 5.2 | 0.00 | 0.00 | 0.00 | 82 | 1010.0 |
| 20260505180223 | 77 | 191 | 3.5 | 5.2 | 0.00 | 0.00 | 0.00 | 82 | 1010.0 |
| 20260505175724 | 78 | 193 | 3.5 | 7.0 | 0.00 | 0.00 | 0.00 | 82 | 1010.0 |
| 20260505175223 | 78 | 243 | 4.3 | 6.1 | 0.00 | 0.00 | 0.00 | 83 | 1010.0 |
| 20260505174723 | 77 | 255 | 2.6 | 4.3 | 0.00 | 0.00 | 0.00 | 84 | 1010.0 |
| 20260505174225 | 77 | 215 | 2.6 | 6.1 | 0.00 | 0.00 | 0.00 | 84 | 1010.0 |
| 20260505173727 | 77 | 182 | 3.5 | 6.1 | 0.00 | 0.00 | 0.00 | 84 | 1011.0 |
| 20260505173224 | 76 | 181 | 1.7 | 5.2 | 0.00 | 0.00 | 0.00 | 85 | 1011.0 |
| 20260505172724 | 76 | 236 | 4.3 | 4.3 | 0.00 | 0.00 | 0.00 | 85 | 1011.0 |
| 20260505172227 | 76 | 180 | 1.7 | 5.2 | 0.00 | 0.00 | 0.00 | 86 | 1011.0 |
| 20260505171724 | 77 | 195 | 2.6 | 5.2 | 0.00 | 0.00 | 0.00 | 86 | 1011.0 |
| 20260505171223 | 76 | 263 | 4.3 | 4.3 | 0.00 | 0.00 | 0.00 | 86 | 1011.0 |
| 20260505170724 | 76 | 251 | 4.3 | 5.2 | 0.00 | 0.00 | 0.00 | 86 | 1011.0 |
| 20260505170223 | 75 | 215 | 4.3 | 6.1 | 0.00 | 0.00 | 0.00 | 86 | 1011.0 |
| 20260505165723 | 75 | 176 | 3.5 | 7.8 | 0.00 | 0.00 | 0.00 | 87 | 1011.0 |
| 20260505165224 | 75 | 212 | 2.6 | 7.8 | 0.00 | 0.00 | 0.00 | 88 | 1011.0 |
| 20260505164725 | 75 | 216 | 3.5 | 6.1 | 0.00 | 0.00 | 0.00 | 87 | 1011.0 |
| 20260505164224 | 75 | 235 | 1.7 | 5.2 | 0.00 | 0.00 | 0.00 | 88 | 1011.0 |
| 20260505163724 | 75 | 200 | 4.3 | 9.6 | 0.00 | 0.00 | 0.00 | 88 | 1011.0 |
| 20260505163224 | 75 | 223 | 3.5 | 6.1 | 0.00 | 0.00 | 0.00 | 89 | 1011.0 |
| 20260505162724 | 74 | 240 | 7.0 | 10.4 | 0.00 | 0.00 | 0.00 | 89 | 1011.0 |
| 20260505162223 | 75 | 238 | 6.1 | 11.3 | 0.00 | 0.00 | 0.00 | 88 | 1011.0 |
| 20260505161724 | 74 | 208 | 2.6 | 6.1 | 0.00 | 0.00 | 0.00 | 89 | 1011.0 |
| 20260505161223 | 74 | 194 | 6.1 | 8.7 | 0.00 | 0.00 | 0.00 | 90 | 1011.0 |
| 20260505160725 | 74 | 164 | 4.3 | 7.8 | 0.00 | 0.00 | 0.00 | 90 | 1011.0 |
| 20260505160225 | 74 | 236 | 8.7 | 8.7 | 0.00 | 0.00 | 0.00 | 90 | 1011.0 |
| 20260505153223 | 73 | 219 | 5.2 | 7.8 | 0.00 | 0.00 | 0.00 | 92 | 1011.0 |
| 20260505152726 | 73 | 221 | 2.6 | 5.2 | 0.00 | 0.00 | 0.00 | 92 | 1011.0 |
| 20260505152225 | 73 | 219 | 6.1 | 6.1 | 0.00 | 0.00 | 0.00 | 92 | 1011.0 |
| 20260505151723 | 73 | 176 | 4.3 | 7.0 | 0.00 | 0.00 | 0.00 | 92 | 1011.0 |
| 20260505151225 | 72 | 174 | 3.5 | 6.1 | 0.00 | 0.00 | 0.00 | 93 | 1011.0 |
| 20260505150723 | 72 | 242 | 3.5 | 4.3 | 0.00 | 0.00 | 0.00 | 93 | 1011.0 |
| 20260505150224 | 72 | 243 | 5.2 | 7.8 | 0.00 | 0.00 | 0.00 | 93 | 1011.0 |
| 20260505140225 | 70 | 193 | 2.6 | 7.8 | 0.00 | 0.00 | 0.00 | 97 | 1010.0 |
| 20260505130223 | 70 | 178 | 1.7 | 10.4 | 0.00 | 0.00 | 0.00 | 96 | 1010.0 |